Weather History for Branson, MO

Change the Weather History Date:

Monday, January 28, 2013

  Actual Average (KHRO) Record (KHRO)
Temperature  
Mean Temperature 65 °F 37 °F  
Max Temperature 73 °F 48 °F 76 °F (2002)
Min Temperature 57 °F 27 °F -4 °F (1948)
Degree Days  
Heating Degree Days 0 28  
Month to date heating degree days 804  
Since 1 July heating degree days 2403  
Cooling Degree Days 0 0  
Month to date cooling degree days 0  
Year to date cooling degree days 0  
Growing Degree Days 15 (Base 50)    
Moisture  
Dew Point 57 °F    
Average Humidity 78    
Maximum Humidity 94    
Minimum Humidity 57    
Precipitation  
Precipitation 0.00 in 0.08 in 1.06 in (2006)
Month to date precipitation 2.32  
Year to date precipitation 2.32  
Snow  
Snow 0.00 in 0.20 in 2.00 in (1945)
Month to date snowfall 3.8  
Since 1 July snowfall 5.6  
Snow Depth -    
Sea Level Pressure  
Sea Level Pressure 29.94 in    
Wind  
Wind Speed 11 mph (South)    
Max Wind Speed 23 mph    
Max Gust Speed 34 mph    
Visibility 10 miles    
Events      
T = Trace of Precipitation, MM = Missing Value Source: NWS Daily Summary

Daily Weather History Graph

Daily Weather History Graph

Search for Another Location

Airport:

Trip Planner

Search our weather history database for the weather conditions in past years. The results will help you decide how hot, cold, wet, or windy it might be!

Date:

Astronomy

Jan. 28, 2013 Rise Set
Actual Time 7:17 AM CST 5:34 PM CST
Civil Twilight 6:49 AM CST 6:02 PM CST
Nautical Twilight 6:18 AM CST 6:33 PM CST
Astronomical Twilight 5:48 AM CST 7:03 PM CST
Moon 7:25 PM CST (1/28) 7:47 AM CST (1/28)
Length of Visible Light 11h 12m
Length of Day
10h 17m
Full, 98% of the Moon is Illuminated
Jan 28
Full
Feb 3
Last Quarter
Feb 10
New
Feb 17
First Quarter
Feb 25
Full

Hourly Weather History & Observations

Time (CST) Temp. Dew Point Humidity Pressure Visibility Wind Dir Wind Speed Gust Speed Precip Events Conditions
12:15 AM 57.2 °F 55.4 °F 94% 29.96 in 10.0 mi South 9.2 mph - N/A   Partly Cloudy
12:35 AM 59.0 °F 55.4 °F 88% 29.97 in 10.0 mi South 8.1 mph 16.1 mph N/A   Partly Cloudy
12:55 AM 59.0 °F 55.4 °F 88% 29.97 in 10.0 mi South 9.2 mph - N/A   Mostly Cloudy
1:15 AM 59.0 °F 55.4 °F 88% 29.97 in 10.0 mi South 10.4 mph 16.1 mph N/A   Overcast
1:35 AM 60.8 °F 55.4 °F 82% 29.97 in 10.0 mi South 8.1 mph - N/A   Overcast
1:55 AM 60.8 °F 55.4 °F 82% 29.97 in 10.0 mi South 9.2 mph - N/A   Overcast
2:15 AM 60.8 °F 55.4 °F 82% 29.97 in 10.0 mi South 8.1 mph 17.3 mph N/A   Overcast
2:35 AM 60.8 °F 55.4 °F 82% 29.97 in 10.0 mi SSW 9.2 mph - N/A   Overcast
2:55 AM 62.6 °F 57.2 °F 82% 29.97 in 10.0 mi SSW 10.4 mph 18.4 mph N/A   Overcast
3:15 AM 62.6 °F 57.2 °F 82% 29.97 in 10.0 mi SSW 10.4 mph 16.1 mph N/A   Overcast
3:35 AM 62.6 °F 57.2 °F 82% 29.97 in 10.0 mi SSW 11.5 mph 21.9 mph N/A   Mostly Cloudy
3:55 AM 62.6 °F 57.2 °F 82% 29.97 in 10.0 mi SSW 12.7 mph 19.6 mph N/A   Overcast
4:15 AM 62.6 °F 57.2 °F 82% 29.96 in 10.0 mi SSW 10.4 mph 21.9 mph N/A   Mostly Cloudy
4:35 AM 62.6 °F 57.2 °F 82% 29.96 in 10.0 mi SSW 12.7 mph 18.4 mph N/A   Mostly Cloudy
4:55 AM 62.6 °F 57.2 °F 82% 29.96 in 10.0 mi SSW 11.5 mph 19.6 mph N/A   Overcast
5:15 AM 62.6 °F 57.2 °F 82% 29.97 in 10.0 mi SSW 10.4 mph - N/A   Overcast
5:35 AM 64.4 °F 57.2 °F 77% 29.97 in 10.0 mi SSW 11.5 mph 20.7 mph N/A   Overcast
6:52 AM 64.4 °F 57.2 °F 77% 29.98 in 10.0 mi SSW 12.7 mph 20.7 mph N/A   Mostly Cloudy
7:54 AM 64.4 °F 57.2 °F 77% 30.00 in 10.0 mi SSW 13.8 mph - N/A   Mostly Cloudy
8:53 AM 64.4 °F 57.2 °F 77% 30.00 in 10.0 mi SSW 11.5 mph 19.6 mph N/A   Scattered Clouds
9:51 AM 68.0 °F 57.2 °F 68% 30.01 in 10.0 mi SSW 19.6 mph 29.9 mph N/A   Mostly Cloudy
10:47 AM 69.8 °F 57.2 °F 64% 30.01 in 10.0 mi SSW 20.7 mph 33.4 mph N/A   Mostly Cloudy
11:46 AM 71.6 °F 57.2 °F 60% 30.00 in 10.0 mi SSW 23.0 mph 34.5 mph N/A   Mostly Cloudy
12:46 PM 71.6 °F 57.2 °F 60% 29.97 in 10.0 mi SSW 20.7 mph 33.4 mph N/A   Mostly Cloudy
1:45 PM 71.6 °F 55.4 °F 57% 29.94 in 10.0 mi SSW 13.8 mph 24.2 mph N/A   Overcast
2:45 PM 73.4 °F 57.2 °F 57% 29.93 in 10.0 mi SW 10.4 mph 24.2 mph N/A   Overcast
3:45 PM 71.6 °F 55.4 °F 57% 29.93 in 10.0 mi SW 13.8 mph 23.0 mph N/A   Mostly Cloudy
4:46 PM 69.8 °F 57.2 °F 64% 29.92 in 10.0 mi South 9.2 mph - N/A   Mostly Cloudy
5:45 PM 68.0 °F 55.4 °F 64% 29.91 in 10.0 mi SSE 8.1 mph - N/A   Mostly Cloudy
6:45 PM 64.4 °F 57.2 °F 77% 29.92 in 10.0 mi SSE 10.4 mph - N/A   Scattered Clouds
7:50 PM 64.4 °F 57.2 °F 77% 29.92 in 10.0 mi South 9.2 mph - N/A   Scattered Clouds
7:55 PM 64.4 °F 57.2 °F 77% 29.92 in 10.0 mi South 8.1 mph - N/A   Mostly Cloudy
8:15 PM 64.4 °F 59.0 °F 83% 29.92 in 10.0 mi South 10.4 mph - N/A   Scattered Clouds
8:35 PM 64.4 °F 59.0 °F 83% 29.92 in 10.0 mi South 8.1 mph - N/A   Mostly Cloudy
8:45 PM 64.4 °F 59.0 °F 83% 29.92 in 10.0 mi South 9.2 mph - N/A   Overcast
8:55 PM 66.2 °F 59.0 °F 78% 29.92 in 10.0 mi South 10.4 mph - N/A   Overcast
9:15 PM 66.2 °F 59.0 °F 78% 29.91 in 10.0 mi South 11.5 mph 18.4 mph N/A   Mostly Cloudy
9:35 PM 66.2 °F 59.0 °F 78% 29.91 in 10.0 mi South 8.1 mph - N/A   Scattered Clouds
9:55 PM 64.4 °F 59.0 °F 83% 29.90 in 10.0 mi SSE 11.5 mph 17.3 mph N/A   Scattered Clouds
10:15 PM 64.4 °F 59.0 °F 83% 29.90 in 10.0 mi SSE 10.4 mph 19.6 mph N/A   Mostly Cloudy
10:35 PM 64.4 °F 59.0 °F 83% 29.88 in 10.0 mi SSE 12.7 mph 18.4 mph N/A   Mostly Cloudy
10:55 PM 64.4 °F 59.0 °F 83% 29.88 in 10.0 mi SSE 13.8 mph 19.6 mph N/A   Scattered Clouds
11:15 PM 64.4 °F 59.0 °F 83% 29.88 in 10.0 mi SSE 11.5 mph 17.3 mph N/A   Partly Cloudy
11:35 PM 64.4 °F 59.0 °F 83% 29.88 in 10.0 mi SSE 10.4 mph 17.3 mph N/A   Clear
11:55 PM 64.4 °F 59.0 °F 83% 29.88 in 10.0 mi SSE 10.4 mph - N/A   Mostly Cloudy